Fargo, ND

4:53 PM CDT on October 20, 2019 (GMT -0500)
Hector International

Weather History for KFAR - August, 2019

Change the Weather History Date:

Friday, August 23, 2019

  Actual Average Record
Temperature  
Mean Temperature 66 °F 68 °F  
Max Temperature 77 °F 80 °F 99 °F (1948)
Min Temperature 55 °F 56 °F 34 °F (1891)
Degree Days  
Heating Degree Days 0 1  
Month to date heating degree days 19 19  
Since 1 June heating degree days 83 108  
Since 1 July heating degree days 25 35  
Cooling Degree Days 1 5  
Month to date cooling degree days 86 137  
Year to date cooling degree days 464 477  
Since 1 June cooling degree days 454 446  
Growing Degree Days 16 (Base 50)    
Moisture  
Dew Point 54 °F    
Average Humidity 66    
Maximum Humidity 86    
Minimum Humidity 49    
Precipitation  
Precipitation 0.00 in 0.10 in 1.21 in (1992)
Month to date precipitation 2.29 1.81  
Year to date precipitation 18.63 15.28  
Snow  
Snow 0.00 in 0.00 in 0.00 in ()
Month to date snowfall 0.0 0.0  
Since 1 June snowfall 0.0 0.0  
Since 1 July snowfall 0.0 0.0  
Snow Depth 0.00 in    
Sea Level Pressure  
Sea Level Pressure 30.12 in    
Wind  
Wind Speed 10 mph ()    
Max Wind Speed 20 mph    
Max Gust Speed 28 mph    
Visibility 10.0 miles    
Events      
T = Trace of Precipitation, MM = Missing Value Source: Averaged Metar Reports

Daily Weather History Graph

Daily Weather History Graph

Search for Another Location

Airport or City:

Astronomy

Aug. 23, 2019 Rise Set
Actual Time 6:34 AM CDT 8:24 PM CDT
Civil Twilight 6:02 AM CDT 8:56 PM CDT
Nautical Twilight 5:22 AM CDT 9:35 PM CDT
Astronomical Twilight 4:39 AM CDT 10:19 PM CDT
Moon No Moon Rise 2:42 PM CDT (8/23)
Length of Visible Light 14h 53m
Length of Day
13h 49m
Waning Gibbous, 49% of the Moon is Illuminated
Aug 23
Waning Gibbous
Aug 30
New
Sep 5
First Quarter
Sep 13
Full
Sep 21
Last Quarter

Hourly Weather History & Observations

Time (CDT) Temp. Dew Point Humidity Pressure Visibility Wind Dir Wind Speed Gust Speed Precip Events Conditions
12:53 AM 60.1 °F 51.1 °F 72% 30.10 in 10.0 mi SE 11.5 mph - N/A   Clear
1:53 AM 60.1 °F 51.1 °F 72% 30.10 in 10.0 mi SE 11.5 mph 20.7 mph N/A   Clear
2:53 AM 59.0 °F 51.1 °F 75% 30.10 in 10.0 mi SE 9.2 mph - N/A   Clear
3:53 AM 57.0 °F 51.1 °F 81% 30.11 in 10.0 mi SE 9.2 mph - N/A   Clear
4:53 AM 55.9 °F 51.1 °F 84% 30.12 in 10.0 mi ESE 9.2 mph - N/A   Clear
5:53 AM 55.9 °F 51.1 °F 84% 30.13 in 10.0 mi SE 10.4 mph - N/A   Clear
6:53 AM 55.9 °F 51.1 °F 84% 30.14 in 10.0 mi ESE 8.1 mph - N/A   Clear
7:53 AM 60.1 °F 52.0 °F 75% 30.15 in 10.0 mi SE 11.5 mph - N/A   Clear
8:53 AM 64.0 °F 53.1 °F 67% 30.16 in 10.0 mi SSE 9.2 mph 18.4 mph N/A   Mostly Cloudy
9:53 AM 64.0 °F 54.0 °F 70% 30.17 in 10.0 mi SSE 9.2 mph 18.4 mph N/A   Scattered Clouds
10:53 AM 66.9 °F 54.0 °F 63% 30.15 in 10.0 mi SE 12.7 mph 23.0 mph N/A   Partly Cloudy
11:53 AM 69.1 °F 54.0 °F 58% 30.17 in 10.0 mi SE 15.0 mph 23.0 mph N/A   Scattered Clouds
12:53 PM 72.0 °F 54.0 °F 53% 30.14 in 10.0 mi SE 12.7 mph 21.9 mph N/A   Mostly Cloudy
1:53 PM 73.9 °F 54.0 °F 50% 30.13 in 10.0 mi SSE 13.8 mph 23.0 mph N/A   Clear
2:53 PM 75.9 °F 55.9 °F 50% 30.12 in 10.0 mi SSE 9.2 mph 21.9 mph N/A   Clear
3:53 PM 75.9 °F 55.9 °F 50% 30.12 in 10.0 mi SSE 11.5 mph - N/A   Clear
4:53 PM 75.9 °F 57.0 °F 52% 30.12 in 10.0 mi SE 12.7 mph - N/A   Clear
5:53 PM 75.9 °F 57.0 °F 52% 30.10 in 10.0 mi SE 12.7 mph 21.9 mph N/A   Clear
6:53 PM 73.9 °F 57.0 °F 55% 30.09 in 10.0 mi ESE 16.1 mph 23.0 mph N/A   Clear
7:53 PM 72.0 °F 57.0 °F 59% 30.09 in 10.0 mi SE 11.5 mph 20.7 mph N/A   Clear
8:53 PM 70.0 °F 57.0 °F 63% 30.10 in 10.0 mi SSE 10.4 mph 20.7 mph N/A   Clear
9:53 PM 68.0 °F 55.9 °F 65% 30.10 in 10.0 mi SE 9.2 mph - N/A   Clear
10:53 PM 66.0 °F 57.0 °F 73% 30.11 in 10.0 mi ESE 9.2 mph - N/A   Clear
11:53 PM 66.0 °F 57.0 °F 73% 30.10 in 10.0 mi SE 16.1 mph - N/A   Clear